Location: Nordegg
(52.4712°N, 116.0743°W)
Time: 11:24:26
(UTC+00:00)

Envisat - Pass Details

Date: 05 December 2021
Orbit: 764 x 766 km, 98.2° (Epoch: 28 January)

Event Time Altitude Azimuth Distance (km) Brightness Sun altitude
Rises 14:52:30 0° 5° (N) 3,249 6.0 -6.7°
Reaches altitude 10° 14:55:40 10° 344° (NNW) 2,317 5.1 -6.2°
Maximum altitude 14:58:37 16° 308° (NW) 1,941 4.5 -5.9°
Drops below altitude 10° 15:01:34 10° 273° (W) 2,309 4.9 -5.5°
Sets 15:04:43 0° 252° (WSW) 3,230 5.8 -5.1°
